Погода в Высокой Горе

Россия / Республика Татарстан     55°54′43″N   49°18′46″E
темп.,
°C
ветер,
м/с
пор.,
м/с
влажн.,
%
обл.,
%
осадки,
мм/ч
давл.,
гПа
погр.,
м
7 марта, вс
вс700:00−14з239797 0.1 101249
03:00−16з239894 0.1 101127
06:00−17зюз239985 0.0 101027
09:00−14юз349689 0.1 1010181
12:00−10ююз459396 0.0 1009387
15:00−9ююз589198 0.1 1006558
18:00−11ю51293100 0.1 1003361
21:00−8ю81494100 1.1 1001789
8 марта, пн
пн800:00−7ю81494100 1.5 997758
03:00−6ю71295100 2.4 993655
06:00−5ююв51196100 1.9 990610
09:00−6з101586100 2.9 992931
12:00−6зюз8138227 0.0 995733
15:00−6зюз6118234 0.0 998901
18:00−9зюз338993 0.0 99838
21:00−12з238996 0.0 100023
9 марта, вт
вт900:00−13з479521 0.0 1002106
03:00−15з479731 0.0 100597
06:00−17зсз339961 0.0 100733
09:00−15з349667 0.0 1009179
12:00−11зсз238898 0.0 1010382
15:00−10зсз238699 0.1 1010552
18:00−12с3596100 0.2 1011124
21:00−15с3695100 0.3 1012161
10 марта, ср
ср1000:00−16с379695 0.1 1012171
03:00−19ссз599693 0.1 1013235
06:00−23ссз5109693 0.0 1014239
09:00−23ссз699594 0.0 1016308
12:00−20с699193 0.0 1017437
15:00−19ссз698783 0.0 1018568
18:00−22ссз5119141 0.0 1020247
21:00−25ссз479420 0.0 1022110
11 марта, чт
чт1100:00−26сз44980 0.0 102273
03:00−26сз44980 0.0 102376
06:00−26з479810 0.0 1023121
09:00−21зсз589650 0.0 1023286
12:00−16зсз5793100 0.1 1023415
15:00−11сз5892100 0.4 1023623
18:00−11сз389499 0.3 1024274
21:00−14сз479190 0.3 1026125